Starlink 32911

operational
NORAD ID: 63096 Int'l Des: 2025-037 Owner: SPXS Country: US Constellation: starlink
LEOCIRCULAR

About Starlink 32911

Description loading...

Live Position

Loading 3D Globe...

Upcoming Passes

Altitude History

Altitude vs Time

uPlot chart will show altitude changes over time

Two-Line Element Set

1 63096U 25037V 25259.02068030 .00052213 00000-0 43551-2 0 9996
2 63096 70.0017 75.0450 0008203 244.3893 115.6419 14.98274544 32435
Epoch: Sep 16, 2025 • Age: 13 hours

Current Status

Altitude 577.1 km
Velocity 7.57 km/s
Sub-Earth Point -1.64°S, 122.24°W
Launch Date Feb 23, 2025
Age 0.5 years
Type internet

Technical Details

Classification Payload
Mass 730.00 kg
Dry Mass 700.00 kg
Total Mass 730.00 kg
Length 0.30 m
Diameter 4.10 m
Span 29.00 m
Shape Box + pan
Manufacturer SPXS
Bus Type Starlink V2M
Phase Status In Orbit
Owner/State SPXS/US

Large Constellations

Loading constellations...